Powrót do katalogu

THORAD AGENA D DEB

AktywnyLEO
NORAD 5359·DEBRIS·🇺🇸 United States

Wystrzelony Apr 8, 1970 z Vandenberg Space Force Base

Loading…

Następne Przeloty (najbliższe 24 godziny)

TLE

ŚwieżeSource: Space-Track

Epoka: Sep 14, 2026, 15:49 UTC

1 05359U 70025KQ  26257.65951362  .00000428  00000-0  50802-3 0  9997
2 05359 100.0273 224.8429 0003123 149.5537  27.4098 13.73990967805626

Śledź THORAD AGENA D DEB w czasie rzeczywistym z AllMySat

Download on the App Store